Regional Weather Roundup
Issued by NWS

Home | Current Version | Previous Version | Graphics & Text | Print | Product List | Glossary On
Versions: 1 2 3 4 5 6 7 8 9 10 11 12 13 14 15 16 17 18 19 20 21 22 23 24 25 26 27 28 29 30 31 32 33 34 35 36 37 38 39 40 41 42 43 44 45 46 47 48 49 50
000
ASUS43 KMKX 282311
RWRWI

WISCONSIN REGIONAL WEATHER ROUNDUP
NATIONAL WEATHER SERVICE MILWAUKEE/SULLIVAN WI
600 PM CDT FRI AUG 28 2015

NOTE: "FAIR" INDICATES FEW OR NO CLOUDS BELOW 12,000 FEET WITH NO
SIGNIFICANT WEATHER AND/OR OBSTRUCTIONS TO VISIBILITY.

WIZ001-002-006>008-014>016-023>028-290000-
NORTHWEST WISCONSIN

CITY           SKY/WX    TMP DP  RH WIND       PRES   REMARKS
SUPERIOR ARPT  SUNNY     76  64  66 SW9       29.92S
ASHLAND        SUNNY     77  65  66 SW12      29.94F
HAYWARD        SUNNY     73  62  68 S12       29.99F
SIREN          SUNNY     75  60  59 S9        29.98S
CUMBERLAND     MOSUNNY   70  59  68 S13       30.01F
RICE LAKE      MOSUNNY   71  61  71 S12       30.03S
CHETEK         MOSUNNY  N/A N/A N/A S7        30.02F
LADYSMITH      PTSUNNY   71  63  76 S8        30.05S
EAU CLAIRE     PTSUNNY   67  59  75 S7        30.03R
MENOMONIE      MOSUNNY   70  62  76 SE7       30.03F
NEW RICHMOND   MOSUNNY   71  59  64 S13       30.01S
OSCEOLA        PTSUNNY   73  62  68 S12       30.02S
$$

WIZ003>005-009-010-017-018-290000-
NORTH CENTRAL WISCONSIN

CITY           SKY/WX    TMP DP  RH WIND       PRES   REMARKS
MANITOWISH WTR PTSUNNY   70  62  76 SW9       30.02F
ARBOR VITAE    CLOUDY    72  65  77 SW9       30.03F
WOODRUFF       CLOUDY    72  65  77 SW9       30.03F
RHINELANDER    CLOUDY    67  60  78 SW10      30.07S
EAGLE RIVER    CLOUDY    69  59  71 SW7       30.03F
LAND O LAKES   CLOUDY    71  61  71 SW9       30.03S
PHILLIPS       PTSUNNY   68  62  81 SW7       30.04S
TOMAHAWK       CLOUDY    65  60  86 CALM      30.07S
MEDFORD        DRIZZLE   64  62  94 SW6       30.07R
MERRILL        DRIZZLE   65  63  93 CALM      30.07S
$$

WIZ029-030-035-036-043>047-290000-
CENTRAL WISCONSIN

CITY           SKY/WX    TMP DP  RH WIND       PRES   REMARKS
WAUSAU         LGT RAIN  64  62  93 S10       30.04S
MOSINEE        LGT RAIN  63  63 100 S12       30.07S
MARSHFIELD     LGT RAIN  65  61  87 S7        30.06F
STEVENS POINT  DRIZZLE   62  60  96 S3        30.07F
WAUPACA        LGT RAIN  64  63  96 CALM      30.08S
WAUTOMA        LGT RAIN  64  64 100 CALM      30.08R FOG
WISC RAPIDS    RAIN      64  61  90 CALM      30.08S FOG
CAMP DOUGLAS   RAIN      61  61 100 S7        30.07R FOG
$$

WIZ011>013-019>022-031-037>040-048>050-290000-
NORTHEAST WISCONSIN

CITY           SKY/WX    TMP DP  RH WIND       PRES   REMARKS
ANTIGO         DRIZZLE   64  62  93 SW3       30.07S
SHAWANO        DRIZZLE   66  64  90 S3        30.07S
OCONTO         CLOUDY    65  65 100 SW7       30.06R
STURGEON BAY   CLOUDY    66  61  82 SW9       30.08S
GREEN BAY      CLOUDY    67  62  84 SW6       30.07F
MANITOWOC      LGT RAIN  65  63  93 MISG      30.09S
APPLETON       LGT RAIN  63  61  94 VRB5      30.07F
CLINTONVILLE   RAIN      64  63  94 SE5       30.06F
OSHKOSH        LGT RAIN  66  63  90 CALM      30.07F FOG
$$

WIZ032>034-041-042-053>061-290000-
SOUTHWEST WISCONSIN

CITY           SKY/WX    TMP DP  RH WIND       PRES   REMARKS
LA CROSSE      RAIN      60  58  92 SE8       30.06R FOG
SPARTA         RAIN      59  57  94 S6        30.09R
VIROQUA        CLOUDY    58  58 100 NE7       30.07S
BOSCOBEL       RAIN      63  61  93 E8        30.02F FOG
PRAIRIE DU CHI RAIN      62  61  95 NE5       30.01R
PLATTEVILLE    CLOUDY    64  63  97 SE9       30.04F
$$

WIZ056-057-062-063-064-067-068-290000-
SOUTH CENTRAL WISCONSIN

CITY           SKY/WX    TMP DP  RH WIND       PRES   REMARKS
REEDSBURG      LGT RAIN  60  59  96 SW9       30.11R
BARABOO/DELLS  RAIN      62  59  90 E8        30.06F
LONE ROCK      RAIN      63  62  97 E8        30.06S FOG
MINERAL POINT  RAIN      63  63 100 E8        30.06
MADISON        LGT RAIN  65  62  90 SE6       30.08R FOG
MIDDLETON      CLOUDY    65  64  97 CALM      30.08R
WATERTOWN      DRIZZLE   65  65 100 CALM      30.07S
MONROE         CLOUDY    64  63  94 E6        30.06F
JANESVILLE     MOSUNNY   68  64  88 E6        30.06F
$$

WIZ051-052-058>065-066-070>072-290000-
SOUTHEAST WISCONSIN

CITY           SKY/WX    TMP DP  RH WIND       PRES   REMARKS
MILWAUKEE      LGT RAIN  69  62  78 E7        30.07F
WAUKESHA       CLOUDY    64  63  94 E6        30.08F
MILWAUKEE/TIMM LGT RAIN  70  59  68 CALM      30.08F
RACINE         LGT RAIN  69  61  75 E3        30.09F
BURLINGTON     RAIN      64  62  92 SE3       30.08F
KENOSHA        LGT RAIN  70  62  76 CALM      30.08F
FOND DU LAC    LGT RAIN  67  64  90 CALM      30.08F
SHEBOYGAN      CLOUDY    68  64  87 CALM      30.08F
WEST BEND      RAIN      66  63  88 CALM      30.08F
JUNEAU         LGT RAIN  65  62  93 NE6       30.08F
$$

LSZ147-162-290000-
LAKE SUPERIOR

STATION/POSITION TIME  TEMP    WIND        PRES    WAVE
                       AIR SEA DIR/SP/G            HT/PER
                 (UTC) (F)     (DEG/KT/KT) (MB)    (FT/S)
W MID LAKE BUOY  2250   66 56  200/ 16/ 19 1012.3F   0
DEVILS ISLAND    2300   70     130/  6/  7 1013.1R
PORT WING        2200   79     210/  9/ 17 1012.9F
SAXON HARBOR     2240   78     200/  6/ 12 1012.9F
$$

LMZ867-665-643>646-290000-
LAKE MICHIGAN

STATION/POSITION TIME  TEMP    WIND        PRES    WAVE
                       AIR SEA DIR/SP/G            HT/PER
                 (UTC) (F)     (DEG/KT/KT) (MB)    (FT/S)
CHAMBERS ISLAND  2200   67     180/  9/ 16 1016.9S
S GREEN BAY BUOY 2200   65 62  210/ 10/ 14 1019.0F
N MID LAKE BUOY  2250   64 64  200/ 17/ 21 1016.8F   3/ 5
NORTHPORT PIER   2200   65     160/  7/ 11 1016.9S
SISTER BAY       2219   68     190/  8/  9   N/A
ALGOMA LAKESHORE 2214          220/ 12/ 14   N/A
SHEBOYGAN LAKESH 2300   64     190/  7/  7 1019.0F
PORT WASHINGTON  2200   60      CALM  /  1 1019.6
ATWATER BUOY     2300   56 49  100/  4/  4 1019.7F
MILWAUKEE LAKESH 2200   61     170/  1/  2   N/A
S MID LAKE BUOY  2250   69 69  160/  4/  4 1019.0R
KENOSHA   LAKESH 2300   62      CALM  /  4 1018.3F
$$

TC  - TEMPERATURE IN CELSIUS
VSB - VISIBILITY IN STATUTE MILES
WCI - WIND CHILL INDEX
HX  - HEAT INDEX




USA.gov is the U.S. government's official web portal to all federal, state and local government web resources and services.